Theta_e
319 317 310 306 307 307 307 306 306 306 307 309 312 315 317 319 318 317 316 316 319 319 319 319 319 319 320 321 321 322 321 322 322 322 323 323 323 323 322 322 323 322 319 318 318 318 319 318 314 311 310 311 313 315 316 317 317 318 319 318 318 318 319
321 318 310 306 307 307 306 306 306 306 307 309 312 315 317 318 317 316 315 317 320 320 319 319 317 318 321 321 321 320 320 320 320 320 321 321 321 322 322 322 321 319 317 317 319 320 318 313 307 306 310 313 313 314 314 315 315 316 317 317 317 317 318
321 316 309 307 307 306 306 306 305 306 306 307 311 314 315 315 315 314 313 316 319 318 317 316 315 317 321 320 319 319 319 319 320 320 320 320 320 321 320 319 317 315 314 315 317 319 315 308 305 305 308 313 315 315 316 316 316 316 316 317 318 318 319
320 315 308 307 307 307 306 306 305 305 305 306 309 312 314 313 311 310 311 312 314 313 313 312 313 316 319 319 318 318 318 317 319 319 319 319 318 317 316 314 312 309 308 308 309 310 308 305 305 304 306 312 315 315 315 316 316 316 316 317 317 317 318
318 313 308 308 308 307 306 306 305 305 305 306 309 312 312 310 308 307 308 308 308 307 307 309 311 313 315 316 315 315 315 315 316 318 317 316 313 310 308 307 306 305 305 305 305 305 304 303 304 303 304 310 315 315 315 315 314 314 315 315 314 314 314
315 311 308 308 308 308 306 305 304 304 305 306 309 310 308 307 306 306 306 305 305 305 305 306 307 308 308 309 309 308 308 309 309 310 310 308 307 305 305 305 305 305 304 304 303 303 303 302 302 303 302 307 313 315 315 314 312 311 311 311 311 310 310
314 312 310 308 308 308 306 305 304 304 305 306 308 308 306 306 306 305 305 305 305 305 305 305 305 305 305 305 305 305 305 305 305 305 305 305 305 305 305 304 304 304 303 303 303 303 303 303 302 302 302 303 309 314 315 313 310 309 308 307 307 307 307
314 314 314 312 310 308 305 304 304 305 305 306 307 306 305 305 306 306 306 306 306 305 306 306 305 305 305 305 305 305 305 305 305 305 305 305 304 304 304 304 304 304 305 305 305 305 305 305 304 304 302 302 305 309 310 309 309 308 306 304 305 305 306
312 313 315 314 311 309 306 304 304 305 305 305 306 306 305 306 305 306 306 306 306 306 305 306 305 305 305 304 304 304 304 304 304 304 304 304 304 304 305 305 306 307 308 309 308 309 309 308 308 308 306 305 304 305 306 306 306 306 305 305 305 305 305
314 313 313 310 310 309 306 305 305 305 305 305 305 305 305 305 306 305 306 306 306 306 306 305 305 305 305 305 305 305 305 305 305 305 305 305 306 306 307 308 309 310 311 311 311 311 311 310 310 310 309 308 308 307 306 306 306 305 305 305 305 305 305
315 314 310 309 312 312 307 305 306 305 305 306 305 306 305 306 306 306 306 306 306 306 305 305 305 306 306 306 306 307 307 308 307 307 307 308 308 308 309 310 310 311 311 311 312 312 312 312 311 311 310 310 310 309 308 307 306 306 305 305 305 305 305
315 313 310 310 314 314 309 306 306 305 306 306 306 306 306 306 306 306 306 306 306 306 306 306 306 306 306 307 307 308 309 309 309 310 309 309 309 309 309 310 310 310 310 310 311 311 312 312 312 312 312 312 311 311 310 309 308 307 306 306 305 305 305
315 314 313 311 313 315 312 308 306 306 306 306 306 306 306 306 306 306 306 306 306 306 306 306 306 307 307 307 307 308 308 309 308 309 309 310 309 309 309 309 309 309 309 310 310 310 311 312 312 312 312 312 312 312 312 312 310 309 308 307 306 306 306
315 315 315 312 313 315 314 311 307 306 307 306 306 307 307 307 307 307 307 307 307 307 307 307 307 307 307 307 307 307 307 307 307 307 308 308 308 308 308 308 308 308 308 308 309 309 310 311 311 312 312 312 312 312 312 312 312 311 310 309 309 308 306
315 315 316 314 314 315 316 314 309 307 308 308 308 307 307 308 307 308 308 308 308 308 308 308 308 308 308 308 309 309 308 308 308 307 307 307 307 307 307 307 308 307 307 307 307 308 308 309 310 311 311 312 312 312 312 312 312 311 311 311 311 309 308
315 314 316 316 315 315 317 317 313 310 309 310 310 309 308 309 309 310 311 311 311 310 310 310 310 311 312 313 313 313 313 313 312 312 311 310 309 308 308 308 309 309 308 307 307 307 308 308 309 309 310 311 311 311 311 311 311 311 311 311 310 310 309
315 314 315 317 316 316 316 317 317 314 312 312 314 313 312 311 311 312 313 314 313 313 313 312 312 313 315 315 316 316 316 316 316 316 315 314 314 313 312 312 312 312 311 310 309 308 308 308 309 309 309 309 310 310 311 311 311 311 311 311 310 310 309
316 315 316 317 317 316 316 317 318 317 315 314 315 315 315 314 313 313 314 315 315 315 315 315 314 315 316 316 316 316 316 316 316 316 317 317 316 316 316 316 315 315 315 315 313 311 310 310 310 309 308 309 309 310 310 310 311 311 311 311 310 309 308
316 315 316 316 317 316 317 317 317 318 317 315 315 315 316 315 314 314 314 314 315 316 316 316 315 316 316 316 316 316 316 316 315 316 316 317 317 317 317 317 316 316 316 317 316 315 314 313 311 311 310 310 309 309 310 310 311 310 311 310 310 309 309
316 315 315 316 317 316 316 317 317 318 318 317 316 315 315 316 315 315 315 314 314 316 316 316 316 316 316 316 316 316 317 316 316 315 316 316 317 316 316 316 316 316 316 316 316 316 316 314 313 313 312 312 311 310 310 310 311 310 310 310 310 310 309
317 316 316 317 317 316 316 317 318 318 318 317 316 316 316 316 316 315 315 315 314 315 315 316 316 316 316 316 316 317 317 317 316 314 314 315 315 315 315 315 316 316 316 316 316 316 315 315 314 313 313 313 312 311 311 311 311 310 310 310 310 309 309
319 317 317 318 318 317 316 317 317 317 317 317 317 317 316 317 316 315 314 314 314 313 314 315 316 316 317 317 317 317 317 317 316 314 313 314 315 315 316 316 316 316 316 316 315 315 315 314 313 313 313 313 312 311 311 311 311 311 310 310 310 309 309
320 319 319 318 318 318 318 317 317 316 316 317 317 317 316 315 315 315 315 313 313 313 314 315 316 317 317 317 317 317 317 317 316 315 314 315 315 315 316 316 316 316 316 316 315 314 313 313 312 312 311 311 311 311 311 310 310 310 310 310 309 309 309
319 319 319 318 318 319 317 317 317 316 316 316 317 317 316 315 314 314 314 312 312 314 315 315 316 317 318 318 317 316 316 315 315 315 315 315 315 315 316 317 317 317 317 317 316 315 313 312 311 310 310 309 309 309 310 309 309 309 309 309 309 308 308
319 319 319 319 318 318 317 317 317 317 316 317 317 317 316 315 314 313 313 313 314 315 314 315 316 317 317 316 315 315 314 314 314 313 312 312 312 312 312 314 316 317 318 317 317 317 314 311 310 309 308 308 308 309 309 309 309 309 308 308 308 308 307
318 319 319 318 317 317 317 317 317 317 317 317 317 316 315 315 315 314 314 315 315 314 315 315 316 317 316 315 314 314 313 311 309 307 306 305 305 306 307 308 310 314 317 318 318 317 315 311 309 309 308 308 308 309 309 308 308 307 307 307 307 307 306
318 318 319 318 316 316 317 318 317 317 317 317 316 315 315 315 315 315 315 315 315 315 315 316 316 315 314 312 310 309 307 305 303 302 302 302 303 304 306 308 310 313 315 317 317 316 314 311 309 308 307 308 308 308 307 307 307 306 305 306 307 306 305
318 318 318 317 316 317 317 318 317 317 317 316 316 315 315 315 315 315 316 316 316 316 315 315 314 311 309 307 306 305 304 303 303 302 303 302 303 303 304 306 309 312 314 315 315 314 312 309 308 307 307 307 308 308 307 307 306 305 305 305 306 305 305
317 317 317 316 316 317 318 317 317 317 316 315 315 315 315 315 315 315 315 315 315 315 314 312 309 307 305 305 304 304 303 303 303 303 302 302 302 302 302 303 305 309 312 314 313 311 308 307 307 307 307 307 308 308 307 306 304 304 304 304 304 304 304
315 316 315 315 316 317 317 317 317 316 316 315 314 314 313 314 314 315 314 314 313 312 310 307 306 306 306 306 305 304 304 303 303 303 303 302 302 302 302 302 303 306 310 312 312 309 308 307 307 306 307 307 307 307 305 304 303 303 304 304 304 304 303
312 313 314 315 316 317 316 316 315 315 315 314 313 313 313 314 314 314 313 311 309 307 306 306 307 308 308 307 306 305 305 305 305 304 304 304 303 302 302 302 303 305 308 310 310 309 308 307 307 306 307 306 306 304 303 303 303 303 303 303 303 302 301
309 309 310 310 312 313 312 312 313 313 313 313 313 313 313 313 312 311 309 307 306 307 308 308 309 309 308 307 307 307 307 307 307 307 306 305 305 304 303 304 304 306 307 308 308 308 308 307 306 306 305 305 303 303 303 303 303 302 302 302 301 301 300
308 307 307 308 308 308 308 309 310 309 310 310 311 311 311 310 310 309 307 306 307 307 307 307 307 307 307 307 307 307 308 308 308 307 306 305 305 305 304 305 305 306 306 306 307 306 306 305 305 305 304 303 303 303 302 302 301 301 301 300 300 299 298
307 307 307 307 307 307 306 306 306 306 306 306 307 308 308 307 307 306 305 304 304 304 304 303 303 303 303 303 304 306 307 307 306 305 304 304 305 305 305 305 305 306 306 305 305 305 305 305 305 304 303 303 302 302 301 302 302 301 300 299 298 297 297
306 306 307 307 307 307 306 305 305 304 304 304 305 305 305 304 304 303 303 303 302 302 302 302 302 302 302 302 304 306 306 305 303 302 302 304 305 305 305 304 304 304 305 305 305 304 304 304 303 303 303 302 302 302 301 301 301 299 298 297 297 296 296
305 305 306 307 307 307 307 307 306 306 305 305 305 304 303 303 303 303 303 303 303 303 303 302 302 302 302 303 305 305 304 303 302 301 302 304 305 305 305 304 304 304 304 304 304 303 303 303 303 302 302 302 301 300 299 298 298 297 296 296 295 295 294
305 304 305 305 306 307 307 307 307 307 306 306 306 306 305 305 304 304 304 304 304 303 303 302 302 302 302 304 305 305 303 303 303 302 302 303 305 305 304 304 303 303 303 303 302 302 302 302 301 301 300 299 298 297 296 296 296 295 295 294 294 294 294
Wind_Speed
3 5 3 1 1 1 1 1 1 0 0 1 3 5 6 6 4 2 2 1 2 3 3 3 3 3 4 5 5 5 4 4 4 3 3 5 6 6 6 4 3 2 3 3 3 4 6 7 6 8 7 3 2 2 2 3 3 4 4 5 6 6 7
3 4 3 2 1 0 0 1 1 1 0 0 2 4 5 6 4 3 3 5 5 6 5 4 4 5 7 8 8 8 7 7 6 5 5 6 8 8 7 6 5 4 4 5 6 6 6 6 6 9 10 7 7 8 7 6 5 4 4 4 4 4 4
4 4 4 3 2 1 1 1 1 0 1 2 2 4 5 5 4 3 4 6 7 6 5 3 4 7 9 9 10 10 10 11 10 10 10 10 10 10 10 8 6 4 4 4 4 4 4 5 6 8 9 9 11 12 12 11 10 9 9 7 6 5 4
5 4 4 3 2 1 2 2 1 1 3 4 5 6 6 5 5 5 5 6 6 5 4 4 6 9 10 9 9 9 10 11 13 13 14 14 13 11 10 7 5 3 3 4 4 3 4 4 5 7 8 10 12 13 12 12 11 10 10 9 9 9 8
6 3 3 3 2 3 3 3 1 2 4 6 7 7 7 7 7 8 8 8 7 7 7 7 8 8 8 7 7 7 8 10 12 12 12 12 10 8 7 6 5 5 5 6 5 5 5 5 5 7 8 9 10 12 12 10 10 9 9 9 10 10 9
4 1 2 2 2 3 4 3 1 3 5 7 8 8 8 9 9 9 10 10 11 11 10 10 10 9 9 8 8 8 8 9 10 10 10 9 9 8 8 8 7 7 7 7 7 7 8 7 7 8 8 8 10 10 8 7 7 7 8 8 10 10 10
3 0 1 0 2 4 4 2 1 3 5 7 8 9 9 10 10 10 10 11 11 12 12 12 12 12 11 10 10 10 10 10 9 9 9 9 8 9 9 9 9 9 10 10 11 11 11 10 9 9 8 8 9 8 6 6 5 6 8 9 9 10 10
3 1 1 1 2 4 3 1 3 4 6 7 9 9 10 10 10 10 10 10 11 11 11 11 11 11 11 10 10 9 10 10 9 9 9 9 9 10 11 11 12 12 13 13 13 13 14 13 13 12 10 8 9 9 7 6 4 6 9 9 9 9 10
5 5 4 2 1 2 1 2 4 6 7 8 9 10 10 10 10 10 11 11 10 10 10 10 11 11 11 11 11 10 11 12 11 11 11 11 11 12 13 13 13 14 14 15 15 15 15 15 14 14 12 11 11 11 10 9 8 8 9 9 9 10 10
9 9 8 6 2 2 3 5 6 8 9 9 10 10 10 10 10 10 10 11 11 11 11 11 11 12 12 12 13 13 14 14 13 13 13 13 13 13 13 13 13 13 14 14 14 14 14 14 14 14 14 14 13 13 13 12 12 12 11 11 11 11 11
12 9 10 10 8 6 7 9 9 9 9 9 10 10 11 11 11 10 10 10 11 11 11 11 12 12 12 13 13 13 14 13 13 13 13 12 12 12 12 12 11 11 12 12 12 12 12 12 12 13 13 14 14 14 14 13 12 12 12 12 13 13 12
19 13 14 15 12 9 9 10 10 10 10 10 10 10 10 11 11 11 11 10 10 10 10 10 11 11 11 11 12 12 12 12 11 10 11 10 9 9 9 9 8 8 8 9 9 9 9 9 9 10 11 12 13 13 13 13 13 12 12 13 14 14 14
25 20 18 18 15 11 11 11 11 11 10 10 9 9 9 9 10 10 10 10 9 9 9 9 10 10 9 9 9 9 8 9 8 7 8 7 7 6 6 5 5 5 5 5 6 6 7 7 6 7 8 9 10 11 11 13 13 13 13 14 14 15 15
25 24 20 20 17 13 13 13 13 13 11 11 10 9 9 8 8 8 7 7 7 7 7 7 8 8 8 7 6 5 5 5 5 5 5 4 4 4 3 3 3 2 2 2 2 3 4 4 4 4 5 6 7 8 10 11 12 12 13 14 15 16 16
25 30 23 21 20 16 16 14 15 15 12 11 11 10 10 8 7 7 6 6 6 5 5 5 5 6 6 5 4 3 3 2 2 2 3 2 2 2 2 2 2 1 1 1 1 1 2 2 3 3 4 4 6 7 8 10 11 11 11 12 14 16 16
23 32 28 23 22 20 19 18 17 18 15 13 12 11 11 10 9 9 7 7 6 6 6 5 4 4 4 3 2 1 1 1 1 2 2 2 2 2 2 2 2 2 2 2 2 2 2 3 3 4 4 4 5 6 7 9 10 10 11 12 13 14 16
22 32 30 24 23 23 22 21 21 21 20 18 16 15 14 13 12 11 10 9 8 8 8 7 5 4 3 2 1 1 1 2 1 0 1 1 2 2 3 4 4 4 4 4 4 3 3 4 4 5 5 5 6 6 7 9 10 11 12 13 13 14 15
23 30 28 22 23 26 27 25 24 25 25 23 21 19 18 15 14 13 12 10 9 8 7 6 4 3 4 4 3 2 2 4 5 4 3 2 2 3 4 5 5 6 6 5 5 5 4 5 6 6 6 7 7 7 8 9 10 11 12 12 13 14 15
26 29 29 26 27 30 30 28 25 26 27 27 25 24 23 21 18 16 14 12 10 8 7 5 3 4 6 7 7 6 5 6 7 8 7 6 5 5 5 6 7 8 7 7 6 6 6 6 6 7 7 7 8 8 8 9 11 12 13 13 13 14 15
31 31 32 31 30 30 30 29 27 24 26 29 29 28 27 25 22 19 16 14 13 11 10 10 9 7 8 9 10 11 11 9 9 10 10 10 9 9 9 9 10 11 10 9 9 8 8 8 8 8 8 8 8 8 8 9 11 13 13 14 14 15 16
34 34 33 30 29 29 30 28 26 24 26 30 32 31 30 28 25 21 16 13 15 16 14 13 12 11 11 13 15 16 15 13 12 12 11 11 11 12 12 12 13 13 13 13 12 12 12 11 10 9 9 9 9 9 9 10 11 12 14 15 16 16 17
31 33 32 28 26 28 31 30 25 23 25 29 31 31 30 28 25 22 17 14 16 17 13 10 12 13 13 15 17 18 17 16 16 15 13 12 13 13 14 14 14 15 15 16 16 16 16 15 13 11 11 11 11 10 11 11 11 12 14 15 16 17 18
25 28 30 28 26 26 30 31 28 24 25 28 30 31 28 25 25 27 27 20 15 14 12 11 14 16 17 18 18 18 18 18 18 17 15 15 15 15 15 15 15 15 15 17 18 20 20 19 17 14 14 14 13 13 13 13 13 13 14 16 18 19 19
18 20 23 24 24 25 25 25 24 23 24 27 28 28 26 22 20 25 26 20 16 15 15 16 16 18 19 19 19 19 18 17 16 15 15 16 16 15 15 15 15 15 16 16 18 20 22 22 20 17 16 16 15 14 15 15 15 15 15 16 19 21 22
15 18 21 21 21 21 20 19 20 21 22 25 25 23 21 18 17 21 22 21 20 19 17 17 18 19 18 17 17 17 16 15 15 15 15 15 15 16 16 16 16 16 16 16 17 19 22 23 21 19 18 17 16 16 16 17 17 17 16 17 20 23 24
16 19 20 19 18 18 19 20 21 21 20 22 23 21 18 16 18 20 21 21 22 20 18 19 19 16 15 15 15 16 16 16 16 15 14 14 13 14 14 15 16 16 15 15 16 16 19 22 22 21 19 18 17 17 17 17 18 17 16 17 21 23 24
18 19 18 18 16 16 18 22 22 20 19 20 21 18 15 15 17 18 19 18 18 18 18 17 15 12 12 13 14 14 14 13 11 11 10 10 10 10 10 11 12 13 13 14 13 12 14 19 22 21 20 19 18 18 17 18 19 18 18 19 22 24 26
16 17 18 18 16 15 18 21 20 18 18 18 17 16 15 15 16 17 17 16 15 14 13 13 11 10 10 10 9 9 8 8 9 9 9 9 9 9 9 9 9 9 9 10 8 8 11 17 20 20 20 20 19 18 18 19 19 18 19 20 22 25 27
15 17 18 18 17 17 19 20 18 16 16 15 15 15 15 16 16 16 16 14 13 12 11 10 10 9 7 6 6 7 7 8 8 9 9 10 10 10 10 9 8 6 6 6 5 6 11 16 18 19 19 19 19 19 19 19 18 19 20 20 22 25 28
11 14 17 17 18 18 18 17 16 16 16 17 17 16 16 17 17 16 15 14 12 11 9 8 7 5 4 5 7 8 8 8 9 9 9 9 9 10 10 9 8 6 5 5 5 8 13 16 17 18 18 18 19 19 19 18 19 20 21 22 24 27 28
4 6 8 10 12 14 14 15 15 16 17 17 18 17 17 18 17 15 14 12 11 9 7 6 4 4 5 7 9 10 10 11 11 11 11 11 10 10 10 9 8 7 6 5 6 9 13 15 16 17 17 18 18 18 18 19 20 22 22 23 25 27 27
5 6 6 7 9 11 12 13 14 15 16 17 17 18 17 16 16 14 13 11 9 7 5 4 4 5 7 9 10 11 11 12 13 13 13 13 12 12 10 9 8 7 7 7 7 9 12 14 15 16 16 17 17 18 19 20 21 22 22 23 25 26 26
8 8 6 5 7 9 10 12 14 14 15 16 16 16 16 16 15 14 12 10 7 5 5 5 6 7 9 11 12 12 12 13 13 13 14 13 12 11 10 9 8 8 8 8 9 11 12 13 14 15 16 16 18 19 20 20 21 22 24 25 26 27 28
8 10 10 9 9 9 11 13 14 13 13 13 15 16 16 16 15 12 10 8 6 4 4 6 8 10 12 13 13 13 13 13 14 14 14 13 11 10 9 9 9 9 10 10 11 12 13 14 15 16 17 17 18 19 20 22 24 26 27 28 29 30 30
10 10 12 13 13 13 14 14 13 12 11 12 14 15 15 15 13 11 9 7 5 5 6 9 11 13 14 13 13 12 12 13 13 13 13 12 11 10 10 10 10 10 10 10 11 12 13 15 16 18 18 19 20 21 23 25 27 28 29 30 30 30 31
13 13 13 14 15 16 16 15 13 12 11 12 13 13 13 13 12 10 9 8 7 8 9 11 13 14 13 12 11 11 11 11 12 12 12 12 11 10 10 10 10 10 10 10 11 12 13 15 17 18 19 21 22 24 25 26 27 28 29 29 30 30 31
17 16 15 16 17 17 17 16 16 15 15 14 14 14 13 13 12 12 11 10 10 10 11 12 12 12 11 11 11 11 11 11 11 12 12 12 11 11 11 11 11 11 11 12 13 14 15 16 18 19 20 21 23 24 24 25 26 27 28 29 30 31 32
Wind_Direction
351 341 334 115 79 43 29 26 342 286 130 109 113 120 126 137 141 125 122 127 117 119 124 117 116 115 108 107 104 105 109 114 125 124 113 108 106 118 139 146 132 88 50 47 66 91 106 99 74 70 70 44 13 12 351 333 324 317 311 309 309 308 308
283 309 285 199 157 178 320 333 282 261 236 187 126 126 131 137 130 98 111 134 133 128 126 120 115 112 108 108 109 109 108 112 117 115 114 112 106 109 116 114 104 92 80 77 85 95 92 68 53 77 92 88 74 72 69 65 58 44 29 13 355 336 319
268 282 253 212 199 216 293 310 289 201 167 179 148 133 127 119 106 90 111 133 142 146 151 146 131 128 124 117 115 113 108 108 113 114 114 113 112 113 113 112 111 108 96 84 89 87 55 34 44 78 100 103 92 88 85 81 76 71 65 59 50 42 30
279 279 243 231 254 276 299 307 291 134 133 132 132 131 124 113 110 107 114 128 140 149 146 133 129 133 134 128 123 120 115 112 112 114 115 114 114 116 117 119 119 102 86 76 71 52 31 31 53 82 104 113 107 101 95 89 83 76 71 65 58 52 43
287 285 244 242 292 309 306 304 257 148 137 129 127 127 122 114 110 109 112 116 118 119 120 120 122 129 135 136 133 130 127 121 117 117 118 115 112 112 112 108 102 90 77 67 60 51 45 46 56 81 109 128 123 113 104 94 83 71 63 56 50 44 36
291 301 229 241 320 327 316 307 242 152 141 137 133 127 120 113 110 110 112 113 111 109 111 113 115 118 122 124 123 121 120 118 117 116 115 111 105 103 104 98 92 84 76 71 64 59 56 53 55 74 106 131 132 128 118 96 75 58 50 44 39 32 24
274 38 172 254 357 333 321 317 194 149 142 140 137 134 129 123 121 121 119 118 117 114 112 110 110 110 110 111 110 108 108 108 107 106 105 104 101 98 96 92 88 84 77 73 68 63 61 61 64 74 96 117 126 133 127 99 78 51 43 39 32 24 16
229 199 168 77 9 342 325 273 168 148 145 146 146 146 141 137 134 133 131 129 128 124 118 114 110 108 106 105 104 103 104 102 100 101 99 98 99 96 95 92 89 86 80 76 73 70 68 70 71 75 85 104 112 116 114 102 83 53 46 40 29 21 16
187 177 150 98 352 323 303 219 170 149 151 152 154 154 149 146 143 141 142 140 138 131 123 117 110 105 103 101 102 102 102 101 100 102 102 102 102 99 97 94 89 86 83 80 78 74 72 72 70 72 80 91 100 105 104 92 74 57 47 40 31 23 18
189 187 159 137 192 226 205 201 179 160 159 158 157 158 155 152 151 149 148 143 139 133 126 120 112 106 105 103 102 102 100 101 105 107 106 106 106 102 98 94 89 86 83 79 77 74 72 70 67 70 75 79 84 90 90 78 64 53 40 32 30 23 16
208 199 167 170 201 215 204 201 190 171 166 166 164 163 161 157 156 155 153 149 141 136 130 123 117 113 112 110 108 107 103 102 106 108 110 110 110 108 103 98 94 87 81 77 74 73 72 69 68 70 72 72 72 76 77 70 58 49 35 26 25 20 13
220 206 176 187 204 206 205 207 202 188 179 179 175 172 171 165 163 161 159 158 151 143 137 130 124 119 117 115 113 112 110 108 109 110 112 115 114 113 110 106 101 90 81 74 70 69 69 67 66 65 65 65 63 63 64 60 50 40 30 22 19 15 10
221 210 190 200 209 202 204 211 211 204 192 188 186 182 181 174 171 169 163 164 162 152 145 137 131 125 118 116 112 112 115 114 116 116 117 120 118 116 117 115 107 93 83 73 65 62 60 58 56 52 53 54 53 51 49 48 42 32 21 14 10 7 5
222 209 202 212 216 204 202 209 212 213 205 197 195 187 184 179 175 172 162 162 163 156 150 139 133 129 124 123 120 119 121 118 119 117 113 114 114 115 113 107 100 90 86 75 59 52 46 44 36 26 29 33 36 38 35 35 35 28 17 7 1 358 356
221 212 211 219 225 221 214 211 211 214 213 203 197 190 188 186 179 174 168 167 166 160 155 145 140 136 132 134 131 126 122 107 97 85 74 66 68 85 85 67 51 37 30 304 322 352 359 10 6 349 348 357 7 17 19 18 19 20 13 4 357 351 348
217 215 220 225 233 236 228 221 215 215 215 210 206 199 194 191 185 179 176 180 184 180 176 177 171 157 145 145 141 129 117 76 84 73 55 33 16 14 12 14 12 0 348 327 318 323 333 340 335 320 315 321 338 353 2 1 1 3 2 357 352 347 344
212 215 225 231 238 242 237 230 225 221 219 218 218 215 207 199 191 186 184 187 190 190 192 197 202 202 185 178 206 272 316 322 307 307 48 35 9 0 355 350 348 343 340 339 332 326 329 330 323 315 310 313 323 333 343 347 349 352 351 348 345 344 343
218 216 224 231 239 244 242 236 233 230 228 224 222 224 222 214 203 198 196 197 199 201 203 199 201 233 232 225 239 259 300 315 307 290 280 296 320 326 336 334 327 323 327 335 335 325 317 316 318 318 316 318 321 323 330 337 342 346 346 345 343 342 341
226 220 221 227 237 242 241 239 238 237 235 233 231 228 228 227 222 215 211 212 216 219 221 224 250 263 240 235 248 256 267 291 301 293 278 274 282 288 294 300 301 302 306 314 320 316 309 304 307 313 316 317 317 319 325 331 337 341 342 343 342 339 337
227 225 225 231 240 242 240 241 243 240 237 238 237 233 231 232 228 224 227 227 225 230 236 244 263 271 258 254 260 265 269 276 288 291 281 271 269 273 277 277 278 283 287 293 298 299 297 293 291 297 305 312 314 316 321 326 333 339 341 342 340 337 335
232 232 232 237 241 240 239 241 244 245 242 240 240 239 236 234 228 226 238 242 235 240 246 248 257 265 268 270 271 272 272 273 282 288 279 269 268 271 274 273 269 269 272 278 283 286 285 282 278 280 287 295 300 304 307 313 323 331 336 339 340 339 337
237 236 237 242 244 240 235 235 238 247 249 245 243 240 235 233 229 224 235 254 251 243 240 248 264 275 283 284 280 276 272 274 283 286 278 273 273 273 275 274 270 267 267 270 273 276 278 277 273 272 275 281 283 285 289 293 304 318 327 333 337 337 335
241 241 240 241 244 242 235 231 232 239 247 250 251 250 246 244 239 233 237 247 242 224 226 254 276 285 291 291 286 279 277 280 284 284 281 281 282 281 280 277 274 270 266 264 266 270 271 272 273 270 266 270 274 277 280 283 290 304 317 327 334 335 333
246 245 239 234 238 238 230 227 231 238 246 251 253 257 260 257 243 231 229 227 218 222 243 263 275 285 288 286 283 280 280 282 283 283 285 286 286 286 284 282 279 274 268 263 261 263 265 265 268 266 261 263 267 272 278 280 283 296 310 323 332 332 328
245 233 227 226 230 231 226 227 236 245 250 249 247 252 259 250 226 216 221 228 233 240 251 262 274 282 282 278 278 280 283 286 288 290 291 290 289 288 286 284 282 278 274 267 260 259 259 259 259 258 256 257 263 271 277 279 282 293 306 320 328 326 323
250 237 230 232 233 233 233 237 242 247 249 246 247 252 249 232 220 221 231 239 240 239 247 261 270 273 269 271 278 282 287 291 295 297 296 294 293 290 286 284 281 278 275 269 262 257 254 250 249 249 248 253 264 273 276 278 283 293 305 316 322 321 317
253 246 242 246 243 232 232 238 242 246 245 242 244 243 231 220 223 230 236 235 234 238 247 254 255 256 262 274 282 286 293 300 306 311 312 312 310 303 294 287 281 277 272 266 261 256 249 244 243 244 245 254 266 270 272 279 287 295 305 313 317 317 315
247 240 240 246 240 224 227 236 238 236 234 230 229 225 220 219 220 221 223 221 222 226 229 232 241 255 268 280 287 293 303 312 317 322 324 326 327 321 314 303 292 284 277 272 270 262 250 242 239 242 249 257 264 267 274 284 289 294 302 307 312 313 312
242 237 238 243 238 228 228 229 224 217 212 207 208 210 211 210 206 206 205 202 201 205 212 227 245 255 265 283 296 301 306 309 311 314 315 318 321 323 324 323 318 311 306 303 293 258 241 237 240 247 255 260 265 272 280 284 286 292 297 300 306 309 306
235 234 237 240 235 227 220 211 205 202 198 196 199 202 201 198 195 195 194 194 198 205 215 230 240 251 281 305 314 317 318 318 319 318 318 319 321 323 328 331 332 337 340 327 289 251 241 242 248 253 258 264 272 278 281 280 284 291 294 297 302 302 297
185 201 210 213 208 203 200 198 196 195 195 197 197 194 191 190 189 189 191 196 201 205 214 229 245 281 306 314 320 324 325 326 328 328 329 331 332 334 335 335 335 340 341 323 284 259 253 253 255 258 263 271 275 276 276 280 286 290 292 295 297 294 291
171 159 154 171 180 181 185 187 186 184 186 188 187 186 186 188 191 193 195 196 197 202 218 240 265 290 303 311 319 322 323 327 330 333 334 335 337 337 335 331 328 326 319 306 284 268 260 257 259 263 268 271 273 274 278 283 287 290 291 293 292 289 289
204 191 179 183 189 194 197 193 189 186 184 183 183 184 185 188 191 191 189 188 192 207 233 261 283 297 305 311 314 318 321 325 329 331 333 334 334 332 325 316 309 302 293 285 277 271 267 266 268 270 271 272 274 278 282 286 288 290 290 290 289 290 291
220 213 207 201 198 204 205 199 198 197 190 188 192 190 187 186 185 182 180 185 197 222 258 284 293 297 299 301 305 310 314 319 323 325 327 327 324 318 307 297 289 284 280 277 276 277 277 276 277 278 280 281 282 283 285 288 289 289 289 289 290 292 294
215 217 218 216 212 209 203 200 204 207 199 194 195 192 187 184 181 180 185 197 220 252 277 288 290 290 290 291 295 301 307 316 321 322 322 320 314 305 296 288 283 281 280 280 281 282 282 281 281 282 284 286 286 286 287 287 287 288 290 292 293 295 297
208 207 214 219 219 215 211 208 211 215 212 208 205 201 197 195 197 203 213 226 245 266 281 288 288 284 283 286 290 295 304 314 318 320 321 317 308 300 294 291 288 286 283 281 280 279 280 282 282 281 282 284 284 286 287 288 290 292 294 296 298 299 301
223 213 211 212 212 211 209 210 214 220 222 221 220 218 217 220 226 232 239 245 253 266 278 284 281 275 275 282 285 288 296 305 310 314 317 312 304 297 295 294 292 288 283 279 276 275 277 279 281 281 283 285 287 289 291 293 296 297 298 300 301 302 302